Tracking 19832 objects as of 25-Aug-2019
HD Live streaming from Space Station
objects crossing your sky now

SL-18 DEB

Track SL-18 DEB now!
10-day predictions


NORAD ID: 28283
Int'l Code: 1993-014L
Perigee: 573.9 km
Apogee: 638.5 km
Inclination: 75.7 °
Period: 96.7 minutes
Semi major axis: 6977 km
RCS: 0.0138 m2 (small)
Launch date: March 25, 1993
Source: Commonwealth of Independent States (former USSR) (CIS)
Launch site: PLESETSK MISSILE AND SPACE COMPLEX (PKMTR)

Note: This is SATELLITE DEBRIS
aabbcc
Your satellite tracking list
Your tracking list is empty




NASA's NSSDC Master Catalog

Two Line Element Set (TLE):
1 28283U 93014L   19236.43741422  .00002377  00000-0  24577-3 0  9995
2 28283  75.7413 256.9807 0046278  77.8216 282.8153 14.89648054825077
Source of the keplerian elements: AFSPC